Regional Weather Roundup
Issued by NWS

Home | Current Version | Previous Version | Graphics & Text | Print | Product List | Glossary Off
Versions: 1 2 3 4 5 6 7 8 9 10 11 12 13 14 15 16 17 18 19 20 21 22 23 24 25 26 27 28 29 30 31 32 33 34 35 36 37 38 39 40 41 42 43 44 45 46 47 48 49 50

000
ASUS43 KMKX 162111
RWRWI

WISCONSIN REGIONAL WEATHER ROUNDUP
NATIONAL WEATHER SERVICE MILWAUKEE/SULLIVAN WI
400 PM CDT TUE SEP 16 2014

NOTE: "FAIR" INDICATES FEW OR NO CLOUDS BELOW 12,000 FEET WITH NO
SIGNIFICANT WEATHER AND/OR OBSTRUCTIONS TO VISIBILITY.

WIZ001-002-006>008-014>016-023>028-162200-
NORTHWEST WISCONSIN

CITY           SKY/WX    TMP DP  RH WIND       PRES   REMARKS
SUPERIOR ARPT  SUNNY     69  44  40 W10       30.00F
ASHLAND        SUNNY     68  45  43 SW12G23   30.01F
HAYWARD        SUNNY     65  41  41 SW9G20    30.06F
SIREN          SUNNY     67  40  36 W8        30.06F
RICE LAKE      MOSUNNY   66  40  38 SW9       30.09S
LADYSMITH      SUNNY     65  42  42 SW9       30.09S
EAU CLAIRE     SUNNY     66  40  38 S7        30.08F
MENOMONIE      CLEAR     67  39  35 SW9       30.08F
NEW RICHMOND   MOSUNNY   66  40  38 W6        30.07F
OSCEOLA        SUNNY     67  41  39 SW9       30.10F
$$

WIZ003>005-009-010-017-018-162200-
NORTH CENTRAL WISCONSIN

CITY           SKY/WX    TMP DP  RH WIND       PRES   REMARKS
WOODRUFF       SUNNY     64  38  37 W14G22    30.04S
RHINELANDER    MOSUNNY   64  41  42 W13       30.06F
EAGLE RIVER    SUNNY     65  36  34 W15       30.03S
LAND O LAKES   SUNNY     66  39  36 W8        30.03F
PHILLIPS       PTSUNNY   64  43  45 W5G17     30.05F
TOMAHAWK       MOSUNNY   64  40  41 W10G17    30.07S
MEDFORD        SUNNY     63  41  44 W9        30.08F
MERRILL        PTSUNNY   65  42  43 W10G17    30.07S
$$

WIZ029-030-035-036-043>047-162200-
CENTRAL WISCONSIN

CITY           SKY/WX    TMP DP  RH WIND       PRES   REMARKS
WAUSAU         MOSUNNY   64  42  44 W9        30.07F
MOSINEE        MOSUNNY   64  45  48 SW9G17    30.10F
MARSHFIELD     SUNNY     64  42  44 W7        30.09F
STEVENS POINT  MOSUNNY   63  41  44 W3        30.10S
WAUPACA        SUNNY     67  42  38 W7        30.09F
WAUTOMA        SUNNY     67  43  41 W6        30.10F
WISC RAPIDS    SUNNY     65  41  41 SW6       30.11F
CAMP DOUGLAS   MOSUNNY   64  43  45 W10       30.10F
$$

WIZ011>013-019>022-031-037>040-048>050-162200-
NORTHEAST WISCONSIN

CITY           SKY/WX    TMP DP  RH WIND       PRES   REMARKS
ANTIGO         MOSUNNY   64  43  47 W13G21    30.07F
STURGEON BAY   SUNNY     63  43  48 SW13G21   30.07S
GREEN BAY      SUNNY     65  43  44 SW14      30.08F
MANITOWOC      SUNNY     64  42  44 W10       30.09F
APPLETON       MOSUNNY   64  39  39 SW9       30.09F
CLINTONVILLE   MOSUNNY   64  39  39 W9G16     30.08S
OSHKOSH        SUNNY     64  43  46 SW5       30.09F
$$

WIZ032>034-041-042-053>061-162200-
SOUTHWEST WISCONSIN

CITY           SKY/WX    TMP DP  RH WIND       PRES   REMARKS
LA CROSSE      SUNNY     68  42  38 W3        30.10F
SPARTA         SUNNY     64  40  40 W8        30.11F
VIROQUA        FAIR      64  42  44 SW6       30.11F
BOSCOBEL       MOSUNNY   66  43  43 VRB6      30.12F
PRAIRIE DU CHI SUNNY     65  40  40 S3        30.10F
PLATTEVILLE    FAIR      64  44  48 CALM      30.13F
$$

WIZ056-057-062-063-064-067-068-162200-
SOUTH CENTRAL WISCONSIN

CITY           SKY/WX    TMP DP  RH WIND       PRES   REMARKS
BARABOO/DELLS  MOSUNNY   63  39  41 W7        30.11F
LONE ROCK      SUNNY     68  43  40 VRB3      30.11F
WATERTOWN      SUNNY     63  42  45 W5        30.11F
MADISON        MOSUNNY   65  42  43 N3        30.12F
MIDDLETON      FAIR      65  42  42 SW5       30.12F
MONROE         SUNNY     63  43  48 NW5       30.12F
JANESVILLE     SUNNY     66  39  37 NW8       30.11F
$$

WIZ051-052-058>065-066-070>072-162200-
SOUTHEAST WISCONSIN

CITY           SKY/WX    TMP DP  RH WIND       PRES   REMARKS
MILWAUKEE      MOSUNNY   64  39  39 SW9       30.12F
WAUKESHA       SUNNY     61  41  48 W8        30.13
MILWAUKEE/TIMM NOT AVBL
RACINE         SUNNY     61  41  47 E8        30.14F
BURLINGTON     SUNNY     63  38  39 NW3       30.12F
KENOSHA        SUNNY     64  42  44 CALM      30.12F
FOND DU LAC    SUNNY     64  41  42 VRB5      30.10F
SHEBOYGAN      SUNNY     64  40  41 W9        30.10F
WEST BEND      SUNNY     63  37  39 W8        30.10F
JUNEAU         SUNNY     62  42  47 W6        30.12F
$$

LSZ147-162-162200-
LAKE SUPERIOR

STATION/POSITION TIME  TEMP    WIND        PRES    WAVE
                       AIR SEA DIR/SP/G            HT/PER
                 (UTC) (F)     (DEG/KT/KT) (MB)    (FT/S)
W MID LAKE BUOY  2050   53 46  230/ 12/ 12 1014.4R   4/ 6
DEVILS ISLAND    2100   61     240/ 23/ 25 1014.7F
PORT WING        2000   67     260/ 11/ 18 1016.3F
SAXON HARBOR     2040   68     250/  8/ 16 1016.3F
$$

LMZ867-665-643>646-162200-
LAKE MICHIGAN

STATION/POSITION TIME  TEMP    WIND        PRES    WAVE
                       AIR SEA DIR/SP/G            HT/PER
                 (UTC) (F)     (DEG/KT/KT) (MB)    (FT/S)
N MID LAKE BUOY  2050   57 58  210/ 19/ 23 1016.9F   3/ 4
NORTHPORT PIER   2000   64     200/  6/ 14 1017.3F
KEWAUNEE LAKESHO 2000   63     220/  8/ 11 1017.8F
SHEBOYGAN LAKESH 2100   62 48  220/  9/ 10 1019.4F
PORT WASHINGTON  2000   63     170/  8/ 12 1020.3F
ATWATER BUOY     2100   59     140/  8/ 10 1020.7F
MILWAUKEE LAKESH 2000   58     110/  7/  9   N/A
S MID LAKE BUOY  2050   58 65  340/  4/  6 1020.8F   1/ 4
KENOSHA   LAKESH 2100   61     120/  8/  8 1019.6F
$$

TC  - TEMPERATURE IN CELSIUS
VSB - VISIBILITY IN STATUTE MILES
WCI - WIND CHILL INDEX
HX  - HEAT INDEX



USA.gov is the U.S. government's official web portal to all federal, state and local government web resources and services.